User: anonymous   Login
Location: Unspecified
(0.0000°N, 0.0000°E)
Time: 19:54:23
(UTC+00:00)
Language:

JAS-1B - Orbit

View from above orbital plane
View from above orbital plane
View from above satellite
View from above satellite

Ground track
Ground track

The orbit data is extracted from the following two-line orbital elements,

1 20480U 90013C   19341.51290769  .00000001  00000-0  67606-4 0  9994
2 20480  99.0343 314.9734 0540755 144.5457 219.2875 12.83423628397609
Epoch (UTC): 07 December 2019 12:18:35
Eccentricity: 0.0540755
inclination: 99.0343°
perigee height: 911 km
apogee height: 1744 km
right ascension of ascending node: 314.9734°
argument of perigee: 144.5457°
revolutions per day: 12.83423628
mean anomaly at epoch: 219.2875°
orbit number at epoch: 39760

The dashed part of the orbit path shows where the satellite is in the earth's shadow,  

DLR